| time (UTC) | temp C | wind direction | speed KPH | gust KPH | rain 1hr cm | rain 24hr cm | rain mn cm | humidity % | barometer mb |
| 20260503032721 | 8 | 0 | 0.0 | 0.0 | 0.20 | 1.30 | 0.48 | 99 | 1012.2 |
| 20260503031821 | 8 | 0 | 0.0 | 0.0 | 0.23 | 1.30 | 0.48 | 99 | 1012.2 |
| 20260503030921 | 8 | 0 | 0.0 | 0.0 | 0.23 | 1.27 | 0.46 | 99 | 1012.2 |
| 20260503030022 | 8 | 0 | 0.0 | 0.0 | 0.20 | 1.22 | 0.43 | 99 | 1012.3 |
| 20260503025121 | 8 | 0 | 0.0 | 0.0 | 0.15 | 1.17 | 0.36 | 99 | 1012.2 |
| 20260503024222 | 8 | 0 | 0.0 | 0.0 | 0.13 | 1.12 | 0.30 | 99 | 1012.3 |
| 20260503023321 | 8 | 0 | 0.0 | 0.0 | 0.10 | 1.09 | 0.28 | 99 | 1012.1 |
| 20260503022422 | 8 | 0 | 0.0 | 0.0 | 0.05 | 1.04 | 0.23 | 99 | 1012.3 |
| 20260503015722 | 8 | 0 | 0.0 | 0.0 | 0.10 | 1.02 | 0.20 | 99 | 1012.3 |
| 20260503014822 | 8 | 0 | 0.0 | 0.0 | 0.05 | 0.99 | 0.18 | 99 | 1012.4 |
| 20260503013922 | 8 | 0 | 0.0 | 0.0 | 0.10 | 0.99 | 0.18 | 99 | 1012.4 |
| 20260503013022 | 8 | 0 | 0.0 | 0.0 | 0.10 | 0.99 | 0.18 | 99 | 1012.5 |
| 20260503012121 | 8 | 102 | 1.6 | 3.2 | 0.10 | 0.99 | 0.18 | 99 | 1012.3 |
| 20260503011222 | 8 | 68 | 0.0 | 3.2 | 0.10 | 0.99 | 0.18 | 99 | 1012.5 |
| 20260503010321 | 8 | 68 | 0.0 | 3.2 | 0.10 | 0.97 | 0.15 | 99 | 1012.5 |
| 20260503005422 | 8 | 135 | 0.0 | 3.2 | 0.10 | 0.94 | 0.13 | 99 | 1012.6 |
| 20260503004522 | 8 | 135 | 1.6 | 3.2 | 0.13 | 0.94 | 0.13 | 99 | 1012.5 |
| 20260503003622 | 8 | 147 | 1.6 | 3.2 | 0.10 | 0.89 | 0.10 | 99 | 1012.7 |
| 20260503000023 | 8 | 151 | 1.6 | 3.2 | 0.05 | 0.86 | 0.05 | 99 | 1013.0 |
| 20260502235121 | 9 | 158 | 1.6 | 3.2 | 0.03 | 0.84 | 0.03 | 99 | 1012.9 |
| 20260502234227 | 9 | 155 | 1.6 | 3.2 | 0.00 | 0.81 | 0.00 | 99 | 1012.9 |
| 20260502233322 | 9 | 0 | 0.0 | 0.0 | 0.03 | 0.81 | 0.00 | 99 | 1012.9 |
| 20260502230622 | 10 | 135 | 1.6 | 3.2 | 0.13 | 0.81 | 0.00 | 99 | 1012.8 |
| 20260502225722 | 10 | 135 | 1.6 | 3.2 | 0.15 | 0.81 | 0.81 | 99 | 1012.7 |
| 20260502224823 | 10 | 131 | 1.6 | 3.2 | 0.15 | 0.81 | 0.81 | 99 | 1013.0 |
| 20260502223922 | 10 | 144 | 3.2 | 3.2 | 0.15 | 0.81 | 0.81 | 99 | 1013.1 |
| 20260502223022 | 10 | 120 | 1.6 | 6.4 | 0.18 | 0.79 | 0.79 | 99 | 1012.8 |
| 20260502222122 | 10 | 122 | 1.6 | 3.2 | 0.18 | 0.76 | 0.76 | 99 | 1012.8 |
| 20260502221222 | 10 | 183 | 1.6 | 3.2 | 0.18 | 0.71 | 0.71 | 99 | 1012.8 |
| 20260502220322 | 10 | 0 | 0.0 | 0.0 | 0.18 | 0.66 | 0.66 | 99 | 1012.9 |
| 20260502215422 | 10 | 225 | 1.6 | 3.2 | 0.28 | 0.66 | 0.66 | 99 | 1012.6 |
| 20260502214522 | 10 | 225 | 0.0 | 3.2 | 0.48 | 0.66 | 0.66 | 99 | 1012.9 |
| 20260502213622 | 10 | 0 | 0.0 | 0.0 | 0.56 | 0.66 | 0.66 | 99 | 1012.7 |
| 20260502212722 | 10 | 0 | 0.0 | 0.0 | 0.51 | 0.56 | 0.56 | 98 | 1012.6 |
| 20260502210922 | 11 | 0 | 0.0 | 0.0 | 0.48 | 0.48 | 0.48 | 97 | 1013.0 |
| 20260502205122 | 11 | 150 | 3.2 | 3.2 | 0.30 | 0.30 | 0.30 | 95 | 1013.0 |
| 20260502204222 | 11 | 158 | 3.2 | 6.4 | 0.15 | 0.18 | 0.15 | 94 | 1013.1 |
| 20260502203322 | 11 | 149 | 3.2 | 6.4 | 0.05 | 0.10 | 0.05 | 91 | 1012.9 |
| 20260502202422 | 11 | 140 | 3.2 | 6.4 | 0.03 | 0.13 | 0.03 | 90 | 1012.8 |
| 20260502201523 | 12 | 141 | 3.2 | 6.4 | 0.00 | 0.18 | 0.00 | 88 | 1012.6 |
| 20260502200623 | 12 | 24 | 4.8 | 9.7 | 0.00 | 0.18 | 0.00 | 85 | 1012.7 |
| 20260502195722 | 12 | 4 | 3.2 | 9.7 | 0.00 | 0.18 | 0.00 | 83 | 1012.9 |
| 20260502194822 | 13 | 7 | 1.6 | 3.2 | 0.00 | 0.18 | 0.00 | 82 | 1012.6 |
| 20260502193922 | 12 | 23 | 0.0 | 3.2 | 0.00 | 0.18 | 0.00 | 80 | 1012.7 |
| 20260502193022 | 13 | 0 | 0.0 | 0.0 | 0.00 | 0.18 | 0.00 | 80 | 1012.5 |
| 20260502192122 | 13 | 1 | 0.0 | 3.2 | 0.00 | 0.23 | 0.00 | 79 | 1012.5 |
| 20260502191222 | 13 | 16 | 1.6 | 6.4 | 0.00 | 0.28 | 0.00 | 78 | 1012.2 |
| 20260502190322 | 13 | 1 | 0.0 | 3.2 | 0.00 | 0.28 | 0.00 | 79 | 1012.2 |
| 20260502185422 | 13 | 1 | 0.0 | 3.2 | 0.00 | 0.28 | 0.00 | 79 | 1012.3 |
| 20260502184522 | 13 | 1 | 1.6 | 3.2 | 0.00 | 0.28 | 0.00 | 79 | 1012.4 |
| 20260502181822 | 13 | 1 | 0.0 | 3.2 | 0.00 | 0.28 | 0.00 | 79 | 1012.2 |
| 20260502180922 | 13 | 353 | 1.6 | 6.4 | 0.00 | 0.28 | 0.00 | 78 | 1012.0 |
| 20260502163922 | 15 | 225 | 3.2 | 3.2 | 0.00 | 0.33 | 0.00 | 69 | 1012.0 |
| 20260502163022 | 15 | 225 | 1.6 | 3.2 | 0.00 | 0.33 | 0.00 | 70 | 1012.3 |
| 20260502162122 | 15 | 224 | 3.2 | 3.2 | 0.00 | 0.36 | 0.00 | 67 | 1012.1 |
| 20260502161222 | 15 | 206 | 1.6 | 3.2 | 0.00 | 0.36 | 0.00 | 66 | 1012.2 |
| 20260502160322 | 16 | 230 | 1.6 | 6.4 | 0.00 | 0.38 | 0.00 | 66 | 1012.1 |
| 20260502151822 | 16 | 248 | 1.6 | 6.4 | 0.00 | 0.51 | 0.00 | 64 | 1012.2 |
| 20260502150922 | 16 | 192 | 4.8 | 9.7 | 0.00 | 0.51 | 0.00 | 64 | 1012.1 |
| 20260502130322 | 16 | 276 | 3.2 | 3.2 | 0.00 | 0.51 | 0.00 | 71 | 1012.9 |
| 20260502123622 | 15 | 341 | 3.2 | 3.2 | 0.00 | 0.51 | 0.00 | 75 | 1013.2 |
| 20260502122723 | 15 | 263 | 3.2 | 3.2 | 0.00 | 0.51 | 0.00 | 75 | 1013.4 |
| 20260502120922 | 15 | 213 | 1.6 | 3.2 | 0.00 | 0.51 | 0.00 | 74 | 1013.7 |
| 20260502115122 | 15 | 197 | 4.8 | 6.4 | 0.00 | 0.51 | 0.00 | 73 | 1013.5 |
| 20260502113322 | 15 | 208 | 4.8 | 9.7 | 0.00 | 0.51 | 0.00 | 75 | 1013.6 |
| 20260502112422 | 15 | 245 | 4.8 | 9.7 | 0.00 | 0.51 | 0.00 | 75 | 1013.6 |
| 20260502111522 | 15 | 262 | 4.8 | 9.7 | 0.00 | 0.51 | 0.00 | 76 | 1013.5 |
| 20260502105722 | 16 | 259 | 3.2 | 6.4 | 0.00 | 0.51 | 0.00 | 76 | 1013.7 |
| 20260502104822 | 15 | 245 | 3.2 | 3.2 | 0.00 | 0.51 | 0.00 | 79 | 1013.7 |
| 20260502103922 | 15 | 241 | 3.2 | 6.4 | 0.00 | 0.51 | 0.00 | 77 | 1013.7 |
| 20260502103022 | 15 | 261 | 3.2 | 6.4 | 0.00 | 0.51 | 0.00 | 78 | 1013.8 |
| 20260502102122 | 15 | 259 | 3.2 | 6.4 | 0.00 | 0.51 | 0.00 | 80 | 1013.8 |
| 20260502101222 | 15 | 255 | 1.6 | 6.4 | 0.00 | 0.51 | 0.00 | 79 | 1013.6 |
| 20260502100322 | 14 | 270 | 3.2 | 6.4 | 0.00 | 0.51 | 0.00 | 81 | 1013.7 |
| 20260502090922 | 13 | 212 | 3.2 | 6.4 | 0.00 | 0.51 | 0.00 | 89 | 1013.7 |
| 20260502071222 | 8 | 203 | 0.0 | 3.2 | 0.00 | 0.51 | 0.00 | 99 | 1013.7 |
| 20260502070322 | 8 | 0 | 0.0 | 0.0 | 0.00 | 0.51 | 0.00 | 99 | 1013.7 |
| 20260502063622 | 7 | 0 | 0.0 | 0.0 | 0.00 | 0.51 | 0.00 | 99 | 1013.8 |
| 20260502062722 | 7 | 0 | 0.0 | 0.0 | 0.00 | 0.51 | 0.00 | 99 | 1013.8 |
| 20260502061822 | 7 | 0 | 0.0 | 0.0 | 0.00 | 0.51 | 0.00 | 99 | 1013.7 |
| 20260502060922 | 7 | 0 | 0.0 | 0.0 | 0.00 | 0.51 | 0.00 | 99 | 1013.8 |
| 20260502060022 | 6 | 0 | 0.0 | 0.0 | 0.00 | 0.51 | 0.00 | 99 | 1013.7 |
| 20260502055122 | 6 | 0 | 0.0 | 0.0 | 0.00 | 0.51 | 0.00 | 99 | 1013.6 |
| 20260502054222 | 6 | 0 | 0.0 | 0.0 | 0.00 | 0.51 | 0.00 | 99 | 1013.8 |
| 20260502053322 | 6 | 0 | 0.0 | 0.0 | 0.00 | 0.51 | 0.00 | 99 | 1013.9 |
| 20260502052422 | 6 | 0 | 0.0 | 0.0 | 0.00 | 0.51 | 0.00 | 99 | 1013.6 |
| 20260502051523 | 6 | 0 | 0.0 | 0.0 | 0.00 | 0.51 | 0.00 | 99 | 1013.7 |
| 20260502050622 | 6 | 0 | 0.0 | 0.0 | 0.00 | 0.51 | 0.00 | 99 | 1014.0 |
| 20260502045722 | 6 | 0 | 0.0 | 0.0 | 0.00 | 0.51 | 0.00 | 99 | 1013.7 |
| 20260502044822 | 6 | 0 | 0.0 | 0.0 | 0.00 | 0.51 | 0.00 | 99 | 1013.7 |
| 20260502043922 | 6 | 0 | 0.0 | 0.0 | 0.00 | 0.51 | 0.00 | 99 | 1013.7 |
| 20260502043022 | 6 | 0 | 0.0 | 0.0 | 0.00 | 0.51 | 0.00 | 99 | 1013.6 |
| 20260502042122 | 6 | 0 | 0.0 | 0.0 | 0.00 | 0.51 | 0.00 | 99 | 1013.9 |
| 20260502041222 | 6 | 0 | 0.0 | 0.0 | 0.00 | 0.51 | 0.00 | 99 | 1013.8 |
| 20260502040322 | 7 | 0 | 0.0 | 0.0 | 0.00 | 0.51 | 0.00 | 99 | 1014.0 |
| 20260502035422 | 7 | 0 | 0.0 | 0.0 | 0.00 | 0.51 | 0.00 | 99 | 1013.9 |
| 20260502034523 | 6 | 0 | 0.0 | 0.0 | 0.00 | 0.51 | 0.00 | 99 | 1013.9 |